www.pogodaiklimat.ru

Погода и климат >> Архив погоды >> Россия >> Коми >> Печора


АРХИВ ПОГОДЫ в Печоре

Время (UTC), дата Ветер
(напр.,м/с)
 
Видим.   Явления Облачность Т
(С)
Тd
(С)
f
(%)
Тe
(С)
Тes
(С)
Комфортность P
(гПа)
Po
(гПа)
Тmin
(С)
Tmax
(С)
R
(мм)
R24
(мм)
S
(см)
12 12.02 Ю 4 15 км {снег} 10/10 300 м
[St]
-4.2 -6.1 87 -11 -11 тепло 1013.3 1005.7
15 12.02 Ю 3 15 км в посл. час зёрна 10/10 210 м
[St]
-3.8 -5.0 91 -9 -9 тепло 1012.8 1005.2 -3.6 0.2
18 12.02 Ю 6-10
{11}
15 км позёмок {снег} 10/10 300 м
[St]
-2.7 -4.7 86 -10 -10 тепло 1012.0 1004.6
21 12.02 Ю 6-10
{11}
8000 м слаб. снег {метель} 10/8 500 м
[Sc As op]
-3.2 -5.3 85 -11 -11 тепло 1011.8 1004.3
00 13.02 Ю 5
{10}
1300 м сильн. снег {метель} 10/8 270 м
[Frnb As op]
-4.2 -6.1 87 -11 -11 тепло 1010.5 1003.0
03 13.02 Ю 4 2500 м снег 10/0
[As op]
-3.6 -5.7 85 -10 -10 тепло 1009.4 1001.9 -4.3 1 78
06 13.02 Ю 5 3500 м снег 10/8 500 м
[Sc As op]
-3.3 -5.0 88 -10 -10 тепло 1007.9 1000.4
09 13.02 Ю 5 2100 м снег 10/8 570 м
[Sc As op]
-2.6 -5.2 82 -9 -9 тепло 1007.1 999.7
12 13.02 Ю 4 15 км в посл. час снег 10/8 500 м
[Sc Ac und]
-2.4 -5.3 80 -8 -8 тепло 1007.0 999.6
15 13.02 Ю 4 2200 м снег 10/8 500 м
[Sc As op]
-2.5 -4.7 85 -8 -8 тепло 1006.6 999.2 -2.2 1
18 13.02 Ю 2 2700 м снег 10/8 840 м
[Sc As op]
-2.5 -4.1 89 -7 -7 тепло 1006.5 999.1
21 13.02 Ю 3 15 км в посл. час снег 10/10 540 м
[Sc]
-2.5 -4.1 89 -8 -8 тепло 1004.8 997.4
00 14.02 Ю 3 1300 м сильн. снег 10/10 210 м
[Frnb Ns]
-3.1 -4.1 93 -8 -8 тепло 1002.1 994.7
03 14.02 Ю 3 1900 м сильн. снег 10/10 240 м
[Frnb Ns]
-3.8 -4.6 94 -9 -9 тепло 1000.0 992.6 -4.0 4 84
06 14.02 Ю 3 800 м сильн. снег 10/10 90 м
[Frnb Ns]
-4.4 -5.3 93 -10 -10 тепло 1000.0 992.6 -4.4
09 14.02 ЮЗ 4 2000 м снег 10/8 210 м
[Frnb As op]
-4.2 -5.8 89 -11 -11 тепло 1002.0 994.6
12 14.02 С 5-10
{10}
1500 м сильн. снег {метель} 10/8 120 м
[Frnb As op]
-5.7 -7.5 87 -13 -13 тепло 1004.2 996.7
15 14.02 С 4
{10}
15 км {снег, метель} 6/4 600 м
[Sc Ci fib]
-12.4 -15.1 80 -20 -20 по сезону 1009.2 1001.6 -3.6 5
18 14.02 штиль 0
{10}
15 км {снег, метель} ясно -16.0 -17.9 85 -16 -16 тепло 1011.3 1003.5
21 14.02 штиль 0 15 км 8/8 600 м
[Sc]
-21.4 -23.2 85 -21 -21 по сезону 1011.6 1003.7
00 15.02 штиль 0 15 км 9/9 660 м
[Sc]
-17.5 -19.4 85 -18 -18 по сезону 1011.2 1003.4
03 15.02 ЮВ 1 15 км 9/9 630 м
[Sc]
-16.2 -18.1 85 -19 -19 по сезону 1010.0 1002.2 -21.9 87
06 15.02 ЮВ 2 15 км 10/10 360 м
[St]
-16.3 -18.2 85 -22 -22 по сезону 1008.1 1000.3
09 15.02 ЮВ 3 15 км 4/1 1000 м
[Sc Ci fib]
-16.1 -19.5 75 -23 -22 по сезону 1006.7 998.9
12 15.02 ЮВ 2 15 км 4/0
[Ci fib]
-13.8 -16.5 80 -19 -19 по сезону 1004.6 996.8
15 15.02 ЮВ 2 15 км 8/8 600 м
[Sc]
-14.0 -16.0 85 -19 -19 по сезону 1002.6 994.9 -13.0
18 15.02 ЮВ 5 8000 м слаб. снег 10/8 720 м
[Sc As op]
-9.2 -11.7 82 -17 -17 по сезону 1000.9 993.3
21 15.02 ЮВ 4 8000 м слаб. снег 10/8 700 м
[Sc As op]
-8.8 -11.7 79 -16 -16 тепло 1000.1 992.5
00 16.02 ЮВ 4 8000 м слаб. снег 10/8 720 м
[Sc As op]
-9.1 -12.0 79 -16 -16 тепло 999.7 992.1
03 16.02 Ю 3 8000 м слаб. снег 10/8 630 м
[Sc As op]
-9.8 -12.4 81 -16 -16 тепло 999.6 992.0 -14.2 0.2 82
06 16.02 Ю 4 8000 м слаб. снег 10/6 480 м
[Sc As op]
-10.2 -13.0 80 -17 -17 по сезону 999.7 992.1
09 16.02 Ю 4 15 км 1/0
[Ac trans]
-9.4 -14.0 69 -16 -16 по сезону 999.3 991.7
12 16.02 Ю 3 9000 м слаб. ливневой снег 8/6 630 м
[Cb cap Ac trans]
-8.8 -12.2 76 -15 -15 по сезону 999.2 991.6
15 16.02 Ю 3 15 км в посл. час ливневой снег 9/6 1020 м
[Cb cap Ac trans]
-9.6 -12.2 81 -15 -15 по сезону 998.4 990.8 -8.2 0.2
18 16.02 Ю 2 8000 м слаб. снег 10/8 480 м
[Sc As op]
-9.9 -12.5 81 -14 -14 тепло 997.2 989.6
21 16.02 Ю 3 8000 м слаб. снег 10/8 400 м
[Frnb As op]
-10.2 -12.2 85 -16 -16 тепло 996.2 988.6
00 17.02 ЮВ 3 8000 м слаб. снег 10/10 360 м
[Frnb Ns]
-10.8 -12.8 85 -17 -17 по сезону 994.4 986.8
03 17.02 ЮВ 4 8000 м слаб. снег 10/8 570 м
[Sc As op]
-10.6 -12.6 85 -18 -18 по сезону 991.9 984.4 -11.2 1 92
06 17.02 ЮВ 4 15 км в посл. час снег 10/10 480 м
[Sc]
-10.1 -12.1 85 -17 -17 по сезону 989.8 982.3
09 17.02 ЮВ 4 8000 м слаб. снег 10/8 500 м
[Sc As trans]
-8.8 -11.2 83 -16 -16 по сезону 987.9 980.4
12 17.02 ЮВ 4 8000 м слаб. снег 10/8 720 м
[Sc As op]
-8.5 -11.3 80 -15 -15 по сезону 985.8 978.3
15 17.02 ЮВ 3 8000 м слаб. снег 10/6 1080 м
[Sc As op]
-8.2 -10.5 83 -14 -14 тепло 984.2 976.7 -8.2 0.2
18 17.02 ЮВ 3 2200 м снег 10/0
[As op]
-7.7 -9.9 84 -13 -13 тепло 984.0 976.7
21 17.02 ЮВ 3 3100 м снег 10/6 400 м
[Frnb As op]
-7.6 -9.4 87 -13 -13 тепло 983.8 976.5
00 18.02 ЮВ 2 3000 м снег 10/6 330 м
[Frnb As op]
-7.8 -9.6 87 -12 -12 тепло 984.7 977.2
03 18.02 В 1 6000 м слаб. снег 10/6 300 м
[Frnb As op]
-9.1 -10.7 88 -11 -11 тепло 985.8 978.3 -9.3 4 93
06 18.02 С 2 3500 м снег 10/6 400 м
[Frnb As op]
-8.3 -9.8 89 -13 -13 тепло 988.0 980.5
09 18.02 С 6-11
{11}
1700 м сильн. снег {метель} 10/6 420 м
[Sc As op]
-8.8 -11.2 83 -17 -17 по сезону 991.8 984.3
12 18.02 С 7-13
{14}
6000 м метель {снег} 9/6 570 м
[Sc Ci fib]
-12.7 -17.0 70 -22 -22 по сезону 997.8 990.1
15 18.02 С 6-10
{13}
15 км позёмок {снег} 8/0
[Ci fib]
-15.0 -18.4 75 -25 -25 прохладно 1002.6 994.9 -7.5 2
18 18.02 СЗ 3
{13}
15 км {снег, метель} ясно -20.8 -23.3 80 -29 -29 холодно 1006.5 998.6
21 18.02 штиль 0 15 км 3/0
[Cc]
-26.3 -28.7 80 -26 -26 по сезону 1008.2 1000.1
00 19.02 ЮВ 1 15 км ясно -28.7 -31.9 74 -33 -33 опасность
обморожения
1008.5 1000.2
03 19.02 ЮВ 2 15 км ясно -27.5 -30.7 74 -35 -35 опасность
обморожения
1008.8 1000.5 -30.4 89
06 19.02 ЮВ 3 800 м переохл. туман ?/? -24.4 -26.9 80 -33 -33 опасность
обморожения
1008.2 1000.1

 

Местоположение метеостанции Печора (Коми, Россия): широта 65.12 долгота 57.10 высота над уровнем моря 59 м.

В архиве по умолчанию представлена погода в Печоре за последнюю неделю. Архивные данные за месяц целиком и за предыдущие месяцы, начиная с января 2011 года, Вы можете получить, выбрав интересующий диапазон дат из раскрывающегося списка и нажав кнопку "Ввод!".


*Определитесь, кто Вы:
робот инопланетянин человек

Внимание! Время в таблицах - всемирное. Для получения местного времени необходимо прибавить поправку, которая равна 3 ч.

Смотрите также архив погоды в соседних городах и на ближайших метеорологических станциях:

Погода в Усть-Усе (Коми, Россия) (95 км)
Погода в Усть-Щугоре (Коми, Россия) (98 км)
Погода в Усинске (Коми, Россия) (102 км)
Погода в Ираеле (Коми, Россия) (105 км)
Погода в Мутном Материке (Коми, Россия) (128 км)
Погода в Вуктыле (Коми, Россия) (144 км)
Погода в Ижме (Коми, Россия) (150 км)
Погода в Кедва-Воме (Коми, Россия) (196 км)
Погода в Саранпауле (Ханты-Мансийский АО, Россия) (202 км)
Погода в Петруни (Коми, Россия) (222 км)

Пояснения к столбцам:

Ветер - указаны скорость ветра в м/с - средняя за 10 мин, порывы в срок и между сроками (в фигурных скобках) и направление, откуда дует ветер: С - северный, СВ - северо-восточный, В - восточный, ЮВ - юго-восточный, Ю - южный, ЮЗ - юго-западный, З - западный, СЗ - северо-западный.
Видимость - горизонтальная дальность видимости в метрах или километрах. При видимости от 1 до 10 км при отсутствии осадков обычно наблюдается дымка, при ухудшении видимости до 1 км и менее - туман. В сухую погоду видимость может ухудшаться дымом, пылью или мглою.
Явления - указаны атмосферные явления, наблюдавшиеся в срок или в последний час перед сроком; фигурными скобками обозначены явления, наблюдавшиеся между сроками (за 1-3 часа до срока); квадратными скобками обозначены град или гололедные отложения с указанием их диаметра в мм.
Облачность - указаны через наклонную черту общая и нижняя облачность в баллах и высота нижней границы облаков в метрах; квадратными скобками обозначены формы облаков: Ci - перистые, Cs - перисто-слоистые, Cc - перисто-кучевые, Ac - высококучевые, As - высокослоистые, Sc - слоисто-кучевые, Ns - слоисто-дождевые, Cu - кучевые, Cb - кучево-дождевые. Подробнее классификацию облаков см. в Атласе облаков (PDF).
T - Температура воздуха - температура, измеренная на высоте 2 м над землей.
Td - Температура точки росы - температура, при понижении до которой содержащийся в воздухе водяной пар достигнет насыщения.
f - Относительная влажность воздуха - влажноcть воздуха, измеренная на высоте 2 м над землей.
Te - Эффективная температура - температура, которую ощущает одетый по сезону человек в тени. Характеристика душности погоды. При расчете учитывается влияние влажности воздуха и скорости ветра на теплоощущения человека.
Tes - Эффективная температура на солнце - температура, которую ощущает человек, с поправкой на солнечный нагрев. Характеристика знойности погоды. Зависит от высоты солнца над горизонтом, облачности и скорости ветра. Ночью, в пасмурную погоду, а также при ветре 12 м/с и более поправка равна нулю.
P - Атмосферное давление - приведенное к уровню моря атмосферное давление.
Po - Атмосферное давление - измеренное на уровне метеостанции атмосферное давление.
Tmin - Минимальная температура - минимум температуры воздуха на высоте 2 м над землей.
Tmax - Максимальная температура - максимум температуры воздуха на высоте 2 м над землей.
R - Количество осадков - Количество выпавших осадков за период времени, мм. При наведении курсора мыши на число - период времени, за который выпало указанное количество осадков.
R24 - Количество осадков - Количество выпавших осадков за 24 часа, мм.
S - Снежный покров - Высота снежного покрова, см. При наведении курсора мыши на число - состояние снежного покрова и степень покрытия местности в баллах.